Time,TemperatureF,DewpointF,PressureIn,WindDirection,WindDirectionDegrees,WindSpeedMPH,WindSpeedGustMPH,Humidity,HourlyPrecipIn,Conditions,Clouds,dailyrainin,SoftwareType,DateUTC
2013-02-02 00:00:00,19.0,5.1,30.43,WSW,253,0.0,4.0,54,0.00,,---,0.00,VWS V14.01,2013-02-02 05:00:00,
2013-02-02 00:01:00,19.0,5.5,30.43,SSW,211,1.0,4.0,55,0.00,,---,0.00,VWS V14.01,2013-02-02 05:01:00,
2013-02-02 00:06:00,19.0,5.1,30.43,WNW,300,2.0,4.0,54,0.00,,---,0.00,VWS V14.01,2013-02-02 05:06:00,
2013-02-02 00:11:00,19.0,4.7,30.43,WNW,283,2.0,6.0,53,0.00,,---,0.00,VWS V14.01,2013-02-02 05:11:00,
2013-02-02 00:16:00,19.1,4.8,30.44,WNW,291,2.0,6.0,53,0.00,,---,0.00,VWS V14.01,2013-02-02 05:16:00,
2013-02-02 00:21:00,19.1,4.4,30.44,West,262,2.0,6.0,52,0.00,,---,0.00,VWS V14.01,2013-02-02 05:21:00,
2013-02-02 00:26:00,19.1,4.4,30.43,West,281,1.0,6.0,52,0.00,,---,0.00,VWS V14.01,2013-02-02 05:26:00,
2013-02-02 00:31:00,19.1,4.4,30.43,West,276,2.0,6.0,52,0.00,,---,0.00,VWS V14.01,2013-02-02 05:31:00,
2013-02-02 00:35:00,19.1,4.4,30.43,SW,231,2.0,8.0,52,0.00,,---,0.00,VWS V14.01,2013-02-02 05:35:00,
2013-02-02 00:40:00,19.2,4.1,30.43,North,350,4.0,11.0,51,0.00,,---,0.00,VWS V14.01,2013-02-02 05:40:00,
2013-02-02 00:45:00,19.2,4.1,30.43,NE,39,0.0,11.0,51,0.00,,---,0.00,VWS V14.01,2013-02-02 05:45:00,
2013-02-02 00:50:00,19.2,4.1,30.43,North,1,1.0,11.0,51,0.00,,---,0.00,VWS V14.01,2013-02-02 05:50:00,
2013-02-02 00:55:00,19.1,4.4,30.43,North,350,2.0,11.0,52,0.00,,---,0.00,VWS V14.01,2013-02-02 05:55:00,
2013-02-02 01:00:00,19.0,3.9,30.43,SW,229,0.0,11.0,51,0.00,,---,0.00,VWS V14.01,2013-02-02 06:00:00,
2013-02-02 01:05:00,18.9,4.6,30.43,NW,317,4.0,5.0,53,0.00,,---,0.00,VWS V14.01,2013-02-02 06:05:00,
2013-02-02 01:10:00,18.8,4.1,30.43,WNW,300,3.0,5.0,52,0.00,,---,0.00,VWS V14.01,2013-02-02 06:10:00,
2013-02-02 01:15:00,18.8,4.5,30.43,North,356,1.0,5.0,53,0.00,,---,0.00,VWS V14.01,2013-02-02 06:15:00,
2013-02-02 01:20:00,18.8,4.5,30.42,WNW,295,2.0,5.0,53,0.00,,---,0.00,VWS V14.01,2013-02-02 06:20:00,
2013-02-02 01:25:00,18.7,4.8,30.42,NNW,338,0.0,5.0,54,0.00,,---,0.00,VWS V14.01,2013-02-02 06:25:00,
2013-02-02 01:30:00,18.7,4.8,30.42,WSW,237,0.0,5.0,54,0.00,,---,0.00,VWS V14.01,2013-02-02 06:30:00,
2013-02-02 01:35:00,18.6,4.7,30.43,WNW,295,3.0,4.0,54,0.00,,---,0.00,VWS V14.01,2013-02-02 06:35:00,
2013-02-02 01:40:00,18.6,4.7,30.43,WNW,283,1.0,4.0,54,0.00,,---,0.00,VWS V14.01,2013-02-02 06:40:00,
2013-02-02 01:45:00,18.5,4.6,30.42,North,351,2.0,4.0,54,0.00,,---,0.00,VWS V14.01,2013-02-02 06:45:00,
2013-02-02 01:50:00,18.5,5.0,30.42,WNW,297,0.0,4.0,55,0.00,,---,0.00,VWS V14.01,2013-02-02 06:50:00,
2013-02-02 01:55:00,18.4,4.9,30.42,SW,235,0.0,4.0,55,0.00,,---,0.00,VWS V14.01,2013-02-02 06:55:00,
2013-02-02 02:00:00,18.2,4.8,30.42,WSW,239,0.0,4.0,55,0.00,,---,0.00,VWS V14.01,2013-02-02 07:00:00,
2013-02-02 02:05:00,18.2,4.8,30.42,WSW,250,0.0,1.0,55,0.00,,---,0.00,VWS V14.01,2013-02-02 07:05:00,
2013-02-02 02:10:00,18.0,5.0,30.42,WNW,289,0.0,5.0,56,0.00,,---,0.00,VWS V14.01,2013-02-02 07:10:00,
2013-02-02 02:15:00,18.0,5.0,30.41,West,264,1.0,5.0,56,0.00,,---,0.00,VWS V14.01,2013-02-02 07:15:00,
2013-02-02 02:20:00,17.9,4.9,30.42,North,349,0.0,5.0,56,0.00,,---,0.00,VWS V14.01,2013-02-02 07:20:00,
2013-02-02 02:25:00,17.8,5.2,30.41,NNW,348,0.0,5.0,57,0.00,,---,0.00,VWS V14.01,2013-02-02 07:25:00,
2013-02-02 02:30:00,17.8,5.2,30.41,West,277,0.0,5.0,57,0.00,,---,0.00,VWS V14.01,2013-02-02 07:30:00,
2013-02-02 02:35:00,17.8,5.2,30.42,West,277,0.0,1.0,57,0.00,,---,0.00,VWS V14.01,2013-02-02 07:35:00,
2013-02-02 02:40:00,17.6,5.3,30.42,SW,224,0.0,1.0,58,0.00,,---,0.00,VWS V14.01,2013-02-02 07:40:00,
2013-02-02 02:45:00,17.5,5.3,30.42,SW,224,0.0,1.0,58,0.00,,---,0.00,VWS V14.01,2013-02-02 07:45:00,
2013-02-02 02:50:00,17.4,5.5,30.42,SW,223,0.0,1.0,59,0.00,,---,0.00,VWS V14.01,2013-02-02 07:50:00,
2013-02-02 02:55:00,17.3,5.8,30.41,SW,224,0.0,1.0,60,0.00,,---,0.00,VWS V14.01,2013-02-02 07:55:00,
2013-02-02 03:00:00,17.2,5.7,30.41,SW,224,0.0,1.0,60,0.00,,---,0.00,VWS V14.01,2013-02-02 08:00:00,
2013-02-02 03:05:00,17.0,5.5,30.41,SW,224,0.0,0.0,60,0.00,,---,0.00,VWS V14.01,2013-02-02 08:05:00,
2013-02-02 03:11:00,16.8,5.3,30.41,SW,224,0.0,0.0,60,0.00,,---,0.00,VWS V14.01,2013-02-02 08:11:00,
2013-02-02 03:15:00,16.5,5.1,30.42,SW,224,0.0,0.0,60,0.00,,---,0.00,VWS V14.01,2013-02-02 08:15:00,
2013-02-02 03:20:00,16.3,5.2,30.41,SW,224,0.0,0.0,61,0.00,,---,0.00,VWS V14.01,2013-02-02 08:20:00,
2013-02-02 03:25:00,16.2,5.8,30.41,SW,224,0.0,0.0,63,0.00,,---,0.00,VWS V14.01,2013-02-02 08:25:00,
2013-02-02 03:30:00,16.3,6.3,30.41,SW,224,0.0,0.0,64,0.00,,---,0.00,VWS V14.01,2013-02-02 08:30:00,
2013-02-02 03:35:00,16.1,6.1,30.41,SW,224,0.0,0.0,64,0.00,,---,0.00,VWS V14.01,2013-02-02 08:35:00,
2013-02-02 03:40:00,16.0,6.0,30.41,SW,224,0.0,0.0,64,0.00,,---,0.00,VWS V14.01,2013-02-02 08:40:00,
2013-02-02 03:45:00,15.8,6.1,30.41,SW,224,0.0,0.0,65,0.00,,---,0.00,VWS V14.01,2013-02-02 08:45:00,
2013-02-02 03:50:00,15.6,6.3,30.41,SW,224,0.0,0.0,66,0.00,,---,0.00,VWS V14.01,2013-02-02 08:50:00,
2013-02-02 03:55:00,15.8,6.5,30.41,SW,224,0.0,0.0,66,0.00,,---,0.00,VWS V14.01,2013-02-02 08:55:00,
2013-02-02 04:00:00,15.8,6.5,30.41,SW,224,0.0,0.0,66,0.00,,---,0.00,VWS V14.01,2013-02-02 09:00:00,
2013-02-02 04:05:00,15.8,6.8,30.41,SW,224,0.0,0.0,67,0.00,,---,0.00,VWS V14.01,2013-02-02 09:05:00,
2013-02-02 04:10:00,15.7,6.7,30.41,SW,224,0.0,0.0,67,0.00,,---,0.00,VWS V14.01,2013-02-02 09:10:00,
2013-02-02 04:15:00,15.5,6.5,30.40,SW,224,0.0,0.0,67,0.00,,---,0.00,VWS V14.01,2013-02-02 09:15:00,
2013-02-02 04:20:00,15.3,6.3,30.40,SW,224,0.0,0.0,67,0.00,,---,0.00,VWS V14.01,2013-02-02 09:20:00,
2013-02-02 04:25:00,15.2,6.6,30.40,SW,224,0.0,0.0,68,0.00,,---,0.00,VWS V14.01,2013-02-02 09:25:00,
2013-02-02 04:30:00,15.3,7.3,30.41,SW,224,0.0,0.0,70,0.00,,---,0.00,VWS V14.01,2013-02-02 09:30:00,
2013-02-02 04:35:00,15.2,7.2,30.41,SW,224,0.0,0.0,70,0.00,,---,0.00,VWS V14.01,2013-02-02 09:35:00,
2013-02-02 04:40:00,15.2,7.5,30.41,SW,224,0.0,0.0,71,0.00,,---,0.00,VWS V14.01,2013-02-02 09:40:00,
2013-02-02 04:45:00,15.1,7.4,30.41,SW,224,0.0,0.0,71,0.00,,---,0.00,VWS V14.01,2013-02-02 09:45:00,
2013-02-02 04:50:00,15.2,7.5,30.41,SW,224,0.0,0.0,71,0.00,,---,0.00,VWS V14.01,2013-02-02 09:50:00,
2013-02-02 04:55:00,15.3,7.3,30.41,SW,224,0.0,0.0,70,0.00,,---,0.00,VWS V14.01,2013-02-02 09:55:00,
2013-02-02 05:00:00,15.5,7.5,30.41,SW,224,0.0,0.0,70,0.00,,---,0.00,VWS V14.01,2013-02-02 10:00:00,
2013-02-02 05:05:00,15.5,7.5,30.41,SW,224,0.0,0.0,70,0.00,,---,0.00,VWS V14.01,2013-02-02 10:05:00,
2013-02-02 05:10:00,15.5,7.5,30.41,SW,224,0.0,0.0,70,0.00,,---,0.00,VWS V14.01,2013-02-02 10:10:00,
2013-02-02 05:15:00,15.5,7.2,30.41,SW,224,0.0,0.0,69,0.00,,---,0.00,VWS V14.01,2013-02-02 10:15:00,
2013-02-02 05:20:00,15.5,7.5,30.41,SW,224,0.0,0.0,70,0.00,,---,0.00,VWS V14.01,2013-02-02 10:20:00,
2013-02-02 05:25:00,15.5,7.8,30.41,SW,224,0.0,0.0,71,0.00,,---,0.00,VWS V14.01,2013-02-02 10:25:00,
2013-02-02 05:30:00,15.4,7.7,30.41,SW,224,0.0,0.0,71,0.00,,---,0.00,VWS V14.01,2013-02-02 10:30:00,
2013-02-02 05:35:00,15.2,7.5,30.41,SW,224,0.0,0.0,71,0.00,,---,0.00,VWS V14.01,2013-02-02 10:35:00,
2013-02-02 05:40:00,15.5,8.4,30.40,SW,224,0.0,0.0,73,0.00,,---,0.00,VWS V14.01,2013-02-02 10:40:00,
2013-02-02 05:45:00,15.6,8.5,30.40,SW,224,0.0,0.0,73,0.00,,---,0.00,VWS V14.01,2013-02-02 10:45:00,
2013-02-02 05:50:00,15.6,8.2,30.41,SW,224,0.0,0.0,72,0.00,,---,0.00,VWS V14.01,2013-02-02 10:50:00,
2013-02-02 05:55:00,15.5,8.4,30.41,SW,224,0.0,0.0,73,0.00,,---,0.00,VWS V14.01,2013-02-02 10:55:00,
2013-02-02 06:00:00,15.4,8.6,30.41,SW,223,0.0,0.0,74,0.00,,---,0.00,VWS V14.01,2013-02-02 11:00:00,
2013-02-02 06:05:00,15.2,8.1,30.40,SW,224,0.0,0.0,73,0.00,,---,0.00,VWS V14.01,2013-02-02 11:05:00,
2013-02-02 06:10:00,15.1,8.3,30.40,SW,224,0.0,0.0,74,0.00,,---,0.00,VWS V14.01,2013-02-02 11:10:00,
2013-02-02 06:15:00,15.1,8.0,30.40,SW,224,0.0,0.0,73,0.00,,---,0.00,VWS V14.01,2013-02-02 11:15:00,
2013-02-02 06:20:00,15.2,8.1,30.40,SW,224,0.0,0.0,73,0.00,,---,0.00,VWS V14.01,2013-02-02 11:20:00,
2013-02-02 06:25:00,15.3,8.2,30.40,SW,224,0.0,0.0,73,0.00,,---,0.00,VWS V14.01,2013-02-02 11:25:00,
2013-02-02 06:30:00,15.3,8.5,30.40,SW,224,0.0,0.0,74,0.00,,---,0.00,VWS V14.01,2013-02-02 11:30:00,
2013-02-02 06:35:00,15.2,8.1,30.40,SW,224,0.0,0.0,73,0.00,,---,0.00,VWS V14.01,2013-02-02 11:35:00,
2013-02-02 06:40:00,15.3,8.5,30.40,SW,224,0.0,0.0,74,0.00,,---,0.00,VWS V14.01,2013-02-02 11:40:00,
2013-02-02 06:45:00,15.4,8.6,30.40,SW,224,0.0,0.0,74,0.00,,---,0.00,VWS V14.01,2013-02-02 11:45:00,
2013-02-02 06:50:00,15.4,8.9,30.40,SW,224,0.0,0.0,75,0.00,,---,0.00,VWS V14.01,2013-02-02 11:50:00,
2013-02-02 06:55:00,15.4,8.9,30.40,SW,224,0.0,0.0,75,0.00,,---,0.00,VWS V14.01,2013-02-02 11:55:00,
2013-02-02 07:00:00,15.4,8.9,30.40,SW,224,0.0,0.0,75,0.00,,---,0.00,VWS V14.01,2013-02-02 12:00:00,
2013-02-02 07:05:00,15.6,9.1,30.41,SW,224,0.0,0.0,75,0.00,,---,0.00,VWS V14.01,2013-02-02 12:05:00,
2013-02-02 07:10:00,15.7,9.2,30.41,SW,224,0.0,0.0,75,0.00,,---,0.00,VWS V14.01,2013-02-02 12:10:00,
2013-02-02 07:15:00,15.7,9.5,30.41,SW,224,0.0,0.0,76,0.00,,---,0.00,VWS V14.01,2013-02-02 12:15:00,
2013-02-02 07:20:00,15.7,9.2,30.41,SW,224,0.0,0.0,75,0.00,,---,0.00,VWS V14.01,2013-02-02 12:20:00,
2013-02-02 07:25:00,15.8,9.3,30.41,SW,224,0.0,0.0,75,0.00,,---,0.00,VWS V14.01,2013-02-02 12:25:00,
2013-02-02 07:30:00,15.9,9.4,30.41,SW,224,0.0,0.0,75,0.00,,---,0.00,VWS V14.01,2013-02-02 12:30:00,
2013-02-02 07:35:00,15.9,9.1,30.41,SW,224,0.0,0.0,74,0.00,,---,0.00,VWS V14.01,2013-02-02 12:35:00,
2013-02-02 07:40:00,15.9,9.4,30.41,SW,224,0.0,0.0,75,0.00,,---,0.00,VWS V14.01,2013-02-02 12:40:00,
2013-02-02 07:45:00,16.0,9.5,30.41,SW,224,0.0,0.0,75,0.00,,---,0.00,VWS V14.01,2013-02-02 12:45:00,
2013-02-02 07:50:00,16.0,9.8,30.41,SW,224,0.0,0.0,76,0.00,,---,0.00,VWS V14.01,2013-02-02 12:50:00,
2013-02-02 07:55:00,16.0,9.5,30.41,SW,224,0.0,0.0,75,0.00,,---,0.00,VWS V14.01,2013-02-02 12:55:00,
2013-02-02 08:00:00,16.0,9.8,30.41,SW,224,0.0,0.0,76,0.00,,---,0.00,VWS V14.01,2013-02-02 13:00:00,
2013-02-02 08:05:00,16.3,9.5,30.41,SW,224,0.0,0.0,74,0.00,,---,0.00,VWS V14.01,2013-02-02 13:05:00,
2013-02-02 08:10:00,16.8,9.4,30.41,SW,223,0.0,0.0,72,0.00,,---,0.00,VWS V14.01,2013-02-02 13:10:00,
2013-02-02 08:15:00,17.6,10.1,30.41,SE,146,0.0,1.0,72,0.00,,---,0.00,VWS V14.01,2013-02-02 13:15:00,
2013-02-02 08:20:00,18.6,8.8,30.41,WSW,257,0.0,1.0,65,0.00,,---,0.00,VWS V14.01,2013-02-02 13:20:00,
2013-02-02 08:25:00,19.0,8.5,30.41,WSW,257,0.0,1.0,63,0.00,,---,0.00,VWS V14.01,2013-02-02 13:25:00,
2013-02-02 08:30:00,19.6,8.7,30.40,SSW,204,0.0,1.0,62,0.00,,---,0.00,VWS V14.01,2013-02-02 13:30:00,
2013-02-02 08:35:00,20.1,8.1,30.40,WSW,242,0.0,1.0,59,0.00,,---,0.00,VWS V14.01,2013-02-02 13:35:00,
2013-02-02 08:40:00,20.4,7.2,30.39,WSW,239,3.0,3.0,56,0.00,,---,0.00,VWS V14.01,2013-02-02 13:40:00,
2013-02-02 08:45:00,20.6,7.8,30.39,ESE,109,1.0,3.0,57,0.00,,---,0.00,VWS V14.01,2013-02-02 13:45:00,
2013-02-02 08:50:00,21.1,7.5,30.39,West,259,1.0,3.0,55,0.00,,---,0.00,VWS V14.01,2013-02-02 13:50:00,
2013-02-02 08:55:00,21.4,6.9,30.39,SSE,159,1.0,3.0,53,0.00,,---,0.00,VWS V14.01,2013-02-02 13:55:00,
2013-02-02 09:00:00,21.7,7.2,30.39,ESE,109,0.0,3.0,53,0.00,,---,0.00,VWS V14.01,2013-02-02 14:00:00,
2013-02-02 09:05:00,22.1,7.6,30.38,WSW,246,0.0,3.0,53,0.00,,---,0.00,VWS V14.01,2013-02-02 14:05:00,
2013-02-02 09:10:00,22.3,7.4,30.38,WSW,250,0.0,3.0,52,0.00,,---,0.00,VWS V14.01,2013-02-02 14:10:00,
2013-02-02 09:15:00,22.7,7.7,30.38,SE,134,1.0,3.0,52,0.00,,---,0.00,VWS V14.01,2013-02-02 14:15:00,
2013-02-02 09:20:00,23.1,7.7,30.39,SSE,160,1.0,4.0,51,0.00,,---,0.00,VWS V14.01,2013-02-02 14:20:00,
2013-02-02 09:25:00,23.4,7.9,30.38,SE,136,3.0,4.0,51,0.00,,---,0.00,VWS V14.01,2013-02-02 14:25:00,
2013-02-02 09:30:00,23.6,7.7,30.38,ESE,112,0.0,4.0,50,0.00,,---,0.00,VWS V14.01,2013-02-02 14:30:00,
2013-02-02 09:35:00,23.9,8.4,30.38,West,274,0.0,2.0,51,0.00,,---,0.00,VWS V14.01,2013-02-02 14:35:00,
2013-02-02 09:40:00,24.3,8.4,30.38,WSW,258,1.0,2.0,50,0.00,,---,0.00,VWS V14.01,2013-02-02 14:40:00,
2013-02-02 09:45:00,24.6,8.2,30.38,ESE,115,1.0,4.0,49,0.00,,---,0.00,VWS V14.01,2013-02-02 14:45:00,
2013-02-02 09:50:00,24.7,8.7,30.38,West,274,0.0,4.0,50,0.00,,---,0.00,VWS V14.01,2013-02-02 14:50:00,
2013-02-02 09:55:00,24.8,8.4,30.37,ESE,105,1.0,5.0,49,0.00,,---,0.00,VWS V14.01,2013-02-02 14:55:00,
2013-02-02 10:00:00,25.1,9.1,30.37,WSW,256,1.0,5.0,50,0.00,,---,0.00,VWS V14.01,2013-02-02 15:00:00,
2013-02-02 10:05:00,25.3,8.8,30.37,West,264,1.0,5.0,49,0.00,,---,0.00,VWS V14.01,2013-02-02 15:05:00,
2013-02-02 10:10:00,25.4,8.5,30.37,WNW,293,5.0,5.0,48,0.00,,---,0.00,VWS V14.01,2013-02-02 15:10:00,
2013-02-02 10:15:00,25.4,9.4,30.36,SSE,150,0.0,5.0,50,0.00,,---,0.00,VWS V14.01,2013-02-02 15:15:00,
2013-02-02 10:20:00,25.8,9.3,30.36,WNW,298,0.0,5.0,49,0.00,,---,0.00,VWS V14.01,2013-02-02 15:20:00,
2013-02-02 10:25:00,25.9,9.4,30.36,SSW,193,1.0,5.0,49,0.00,,---,0.00,VWS V14.01,2013-02-02 15:25:00,
2013-02-02 10:30:00,26.0,9.5,30.36,SSW,211,1.0,5.0,49,0.00,,---,0.00,VWS V14.01,2013-02-02 15:30:00,
2013-02-02 10:35:00,26.2,8.3,30.36,SSW,205,1.0,5.0,46,0.00,,---,0.00,VWS V14.01,2013-02-02 15:35:00,
2013-02-02 10:40:00,26.3,8.8,30.36,WSW,253,2.0,5.0,47,0.00,,---,0.00,VWS V14.01,2013-02-02 15:40:00,
2013-02-02 10:45:00,26.5,8.5,30.35,SW,226,0.0,5.0,46,0.00,,---,0.00,VWS V14.01,2013-02-02 15:45:00,
2013-02-02 10:50:00,26.8,8.3,30.35,South,186,1.0,5.0,45,0.00,,---,0.00,VWS V14.01,2013-02-02 15:50:00,
2013-02-02 10:55:00,26.8,8.3,30.35,SW,219,0.0,5.0,45,0.00,,---,0.00,VWS V14.01,2013-02-02 15:55:00,
2013-02-02 11:00:00,26.8,8.3,30.35,WSW,250,1.0,5.0,45,0.00,,---,0.00,VWS V14.01,2013-02-02 16:00:00,
2013-02-02 11:05:00,26.9,9.4,30.35,ESE,109,1.0,4.0,47,0.00,,---,0.00,VWS V14.01,2013-02-02 16:05:00,
2013-02-02 11:10:00,27.1,10.0,30.35,SSE,159,0.0,5.0,48,0.00,,---,0.00,VWS V14.01,2013-02-02 16:10:00,
2013-02-02 11:15:00,27.3,9.7,30.34,East,98,2.0,5.0,47,0.00,,---,0.00,VWS V14.01,2013-02-02 16:15:00,
2013-02-02 11:20:00,27.7,10.1,30.34,NNW,340,2.0,5.0,47,0.00,,---,0.00,VWS V14.01,2013-02-02 16:20:00,
2013-02-02 11:25:00,27.7,9.1,30.33,SW,218,3.0,5.0,45,0.00,,---,0.00,VWS V14.01,2013-02-02 16:25:00,
2013-02-02 11:30:00,27.7,8.6,30.33,WSW,255,5.0,6.0,44,0.00,,---,0.00,VWS V14.01,2013-02-02 16:30:00,
2013-02-02 11:35:00,27.7,8.6,30.32,SSE,148,2.0,3.0,44,0.00,,---,0.00,VWS V14.01,2013-02-02 16:35:00,
2013-02-02 11:40:00,27.9,8.8,30.32,SW,226,1.0,4.0,44,0.00,,---,0.00,VWS V14.01,2013-02-02 16:40:00,
2013-02-02 11:45:00,28.0,9.4,30.32,SW,229,3.0,4.0,45,0.00,,---,0.00,VWS V14.01,2013-02-02 16:45:00,
2013-02-02 11:50:00,28.1,8.5,30.31,West,281,3.0,5.0,43,0.00,,---,0.00,VWS V14.01,2013-02-02 16:50:00,
2013-02-02 11:55:00,28.1,9.0,30.31,SW,232,0.0,5.0,44,0.00,,---,0.00,VWS V14.01,2013-02-02 16:55:00,
2013-02-02 12:00:00,28.2,9.1,30.31,West,264,2.0,5.0,44,0.00,,---,0.00,VWS V14.01,2013-02-02 17:00:00,
2013-02-02 12:05:00,28.4,9.3,30.30,WSW,245,2.0,3.0,44,0.00,,---,0.00,VWS V14.01,2013-02-02 17:05:00,
2013-02-02 12:10:00,28.5,8.9,30.30,WSW,245,1.0,4.0,43,0.00,,---,0.00,VWS V14.01,2013-02-02 17:10:00,
2013-02-02 12:15:00,28.4,8.8,30.29,South,190,1.0,4.0,43,0.00,,---,0.00,VWS V14.01,2013-02-02 17:15:00,
2013-02-02 12:20:00,28.4,9.3,30.29,WSW,246,1.0,4.0,44,0.00,,---,0.00,VWS V14.01,2013-02-02 17:20:00,
2013-02-02 12:25:00,28.3,10.2,30.28,SE,143,0.0,5.0,46,0.00,,---,0.00,VWS V14.01,2013-02-02 17:25:00,
2013-02-02 12:30:00,28.3,11.1,30.28,West,263,2.0,7.0,48,0.00,,---,0.00,VWS V14.01,2013-02-02 17:30:00,
2013-02-02 12:35:00,28.2,12.0,30.28,East,98,2.0,3.0,50,0.00,,---,0.00,VWS V14.01,2013-02-02 17:35:00,
2013-02-02 12:40:00,28.0,12.7,30.28,SSE,156,1.0,5.0,52,0.00,,---,0.00,VWS V14.01,2013-02-02 17:40:00,
2013-02-02 12:45:00,27.9,12.6,30.27,NW,304,2.0,5.0,52,0.00,,---,0.00,VWS V14.01,2013-02-02 17:45:00,
2013-02-02 12:50:00,27.8,12.5,30.27,West,264,2.0,6.0,52,0.00,,---,0.00,VWS V14.01,2013-02-02 17:50:00,
2013-02-02 12:55:00,27.7,13.2,30.27,SW,229,1.0,6.0,54,0.00,,---,0.00,VWS V14.01,2013-02-02 17:55:00,
2013-02-02 13:00:00,27.9,13.4,30.26,WSW,242,3.0,6.0,54,0.00,,---,0.00,VWS V14.01,2013-02-02 18:00:00,
2013-02-02 13:05:00,27.6,13.6,30.26,WSW,258,3.0,5.0,55,0.00,,---,0.00,VWS V14.01,2013-02-02 18:05:00,
2013-02-02 13:10:00,27.3,14.1,30.25,West,281,1.0,5.0,57,0.00,,---,0.00,VWS V14.01,2013-02-02 18:10:00,
2013-02-02 13:15:00,27.3,14.5,30.25,SW,224,1.0,5.0,58,0.00,,---,0.00,VWS V14.01,2013-02-02 18:15:00,
2013-02-02 13:20:00,27.4,15.0,30.25,WNW,282,1.0,5.0,59,0.00,,---,0.00,VWS V14.01,2013-02-02 18:20:00,
2013-02-02 13:25:00,27.4,15.4,30.25,WNW,298,5.0,8.0,60,0.00,,---,0.00,VWS V14.01,2013-02-02 18:25:00,
2013-02-02 13:30:00,27.1,15.8,30.24,West,259,2.0,8.0,62,0.00,,---,0.00,VWS V14.01,2013-02-02 18:30:00,
2013-02-02 13:35:00,27.1,16.6,30.24,WNW,298,6.0,6.0,64,0.00,,---,0.00,VWS V14.01,2013-02-02 18:35:00,
2013-02-02 13:40:00,26.9,16.7,30.24,NNW,338,0.0,6.0,65,0.00,,---,0.00,VWS V14.01,2013-02-02 18:40:00,
2013-02-02 13:45:00,27.1,16.9,30.23,South,177,0.0,6.0,65,0.00,,---,0.00,VWS V14.01,2013-02-02 18:45:00,
2013-02-02 13:50:00,27.4,16.5,30.23,SSE,167,1.0,6.0,63,0.00,,---,0.00,VWS V14.01,2013-02-02 18:50:00,
2013-02-02 13:55:00,27.3,15.6,30.23,SE,145,0.0,6.0,61,0.00,,---,0.00,VWS V14.01,2013-02-02 18:55:00,
2013-02-02 14:00:00,27.3,15.6,30.22,SW,218,0.0,6.0,61,0.00,,---,0.00,VWS V14.01,2013-02-02 19:00:00,
2013-02-02 14:05:00,27.4,15.7,30.22,West,276,0.0,1.0,61,0.00,,---,0.00,VWS V14.01,2013-02-02 19:05:00,
2013-02-02 14:10:00,27.5,16.2,30.22,SW,226,1.0,1.0,62,0.00,,---,0.00,VWS V14.01,2013-02-02 19:10:00,
2013-02-02 14:15:00,27.8,15.7,30.21,SSW,210,0.0,2.0,60,0.00,,---,0.00,VWS V14.01,2013-02-02 19:15:00,
2013-02-02 14:20:00,28.2,15.7,30.21,SW,233,0.0,2.0,59,0.00,,---,0.00,VWS V14.01,2013-02-02 19:20:00,
2013-02-02 14:25:00,28.6,15.3,30.21,SSE,162,1.0,2.0,57,0.00,,---,0.00,VWS V14.01,2013-02-02 19:25:00,
2013-02-02 14:30:00,28.7,15.0,30.21,SSW,195,1.0,3.0,56,0.00,,---,0.00,VWS V14.01,2013-02-02 19:30:00,
2013-02-02 14:35:00,28.9,15.2,30.20,SSW,196,0.0,0.0,56,0.00,,---,0.00,VWS V14.01,2013-02-02 19:35:00,
2013-02-02 14:40:00,29.1,15.0,30.20,SSE,149,1.0,2.0,55,0.00,,---,0.00,VWS V14.01,2013-02-02 19:40:00,
2013-02-02 14:45:00,29.1,14.5,30.20,SSE,163,0.0,2.0,54,0.00,,---,0.00,VWS V14.01,2013-02-02 19:45:00,
2013-02-02 14:50:00,29.3,14.7,30.20,SW,228,0.0,2.0,54,0.00,,---,0.00,VWS V14.01,2013-02-02 19:50:00,
2013-02-02 14:55:00,29.5,13.6,30.20,ESE,119,1.0,4.0,51,0.00,,---,0.00,VWS V14.01,2013-02-02 19:55:00,
2013-02-02 15:00:00,29.4,12.6,30.20,SW,221,1.0,4.0,49,0.00,,---,0.00,VWS V14.01,2013-02-02 20:00:00,
2013-02-02 15:05:00,29.5,13.2,30.19,WSW,245,0.0,3.0,50,0.00,,---,0.00,VWS V14.01,2013-02-02 20:05:00,
2013-02-02 15:10:00,29.6,12.8,30.19,South,183,1.0,5.0,49,0.00,,---,0.00,VWS V14.01,2013-02-02 20:10:00,
2013-02-02 15:15:00,29.7,12.9,30.19,SW,217,1.0,5.0,49,0.00,,---,0.00,VWS V14.01,2013-02-02 20:15:00,
2013-02-02 15:20:00,30.0,12.7,30.18,WSW,248,2.0,5.0,48,0.00,,---,0.00,VWS V14.01,2013-02-02 20:20:00,
2013-02-02 15:25:00,30.2,12.9,30.18,SE,133,0.0,6.0,48,0.00,,---,0.00,VWS V14.01,2013-02-02 20:25:00,
2013-02-02 15:30:00,30.4,13.1,30.18,NE,37,2.0,6.0,48,0.00,,---,0.00,VWS V14.01,2013-02-02 20:30:00,
2013-02-02 15:35:00,30.6,12.8,30.18,East,92,3.0,5.0,47,0.00,,---,0.00,VWS V14.01,2013-02-02 20:35:00,
2013-02-02 15:40:00,30.8,13.0,30.17,WSW,245,1.0,5.0,47,0.00,,---,0.00,VWS V14.01,2013-02-02 20:40:00,
2013-02-02 15:45:00,31.0,12.7,30.17,ENE,72,1.0,5.0,46,0.00,,---,0.00,VWS V14.01,2013-02-02 20:45:00,
2013-02-02 15:50:00,31.2,12.8,30.17,SW,229,1.0,5.0,46,0.00,,---,0.00,VWS V14.01,2013-02-02 20:50:00,
2013-02-02 15:55:00,31.3,12.4,30.17,West,276,3.0,5.0,45,0.00,,---,0.00,VWS V14.01,2013-02-02 20:55:00,
2013-02-02 16:00:00,31.5,12.1,30.17,SW,232,2.0,6.0,44,0.00,,---,0.00,VWS V14.01,2013-02-02 21:00:00,
2013-02-02 16:05:00,31.5,12.6,30.17,West,267,3.0,3.0,45,0.00,,---,0.00,VWS V14.01,2013-02-02 21:05:00,
2013-02-02 16:10:00,31.6,12.7,30.17,SW,224,0.0,4.0,45,0.00,,---,0.00,VWS V14.01,2013-02-02 21:10:00,
2013-02-02 16:15:00,31.6,12.7,30.17,SSW,202,0.0,5.0,45,0.00,,---,0.00,VWS V14.01,2013-02-02 21:15:00,
2013-02-02 16:20:00,31.7,12.8,30.17,SE,127,2.0,8.0,45,0.00,,---,0.00,VWS V14.01,2013-02-02 21:20:00,
2013-02-02 16:25:00,31.6,13.7,30.16,NW,306,4.0,13.0,47,0.00,,---,0.00,VWS V14.01,2013-02-02 21:25:00,
2013-02-02 16:30:00,31.3,13.9,30.16,SW,221,2.0,13.0,48,0.00,,---,0.00,VWS V14.01,2013-02-02 21:30:00,
2013-02-02 16:35:00,31.2,13.8,30.16,SE,127,0.0,4.0,48,0.00,,---,0.00,VWS V14.01,2013-02-02 21:35:00,
2013-02-02 16:40:00,31.3,13.4,30.15,WNW,295,3.0,6.0,47,0.00,,---,0.00,VWS V14.01,2013-02-02 21:40:00,
2013-02-02 16:45:00,31.3,14.8,30.15,ESE,103,4.0,6.0,50,0.00,,---,0.00,VWS V14.01,2013-02-02 21:45:00,
2013-02-02 16:50:00,31.0,15.4,30.14,SSW,205,3.0,6.0,52,0.00,,---,0.00,VWS V14.01,2013-02-02 21:50:00,
2013-02-02 16:55:00,30.8,15.7,30.14,South,174,3.0,6.0,53,0.00,,---,0.00,VWS V14.01,2013-02-02 21:55:00,
2013-02-02 17:00:00,30.7,16.5,30.14,SW,219,3.0,6.0,55,0.00,,---,0.00,VWS V14.01,2013-02-02 22:00:00,
2013-02-02 17:05:00,30.5,17.5,30.14,WSW,252,5.0,6.0,58,0.00,,---,0.00,VWS V14.01,2013-02-02 22:05:00,
2013-02-02 17:10:00,29.9,19.2,30.13,SE,134,5.0,9.0,64,0.00,,---,0.00,VWS V14.01,2013-02-02 22:10:00,
2013-02-02 17:15:00,29.3,20.1,30.13,SE,139,2.0,9.0,68,0.00,,---,0.00,VWS V14.01,2013-02-02 22:15:00,
2013-02-02 17:20:00,28.9,21.4,30.14,WNW,288,4.0,9.0,73,0.00,,---,0.00,VWS V14.01,2013-02-02 22:20:00,
2013-02-02 17:25:00,28.4,22.1,30.13,WSW,243,3.0,9.0,77,0.00,,---,0.00,VWS V14.01,2013-02-02 22:25:00,
2013-02-02 17:30:00,28.1,22.1,30.13,SE,134,0.0,9.0,78,0.00,,---,0.00,VWS V14.01,2013-02-02 22:30:00,
2013-02-02 17:35:00,28.0,22.6,30.13,WSW,256,3.0,3.0,80,0.00,,---,0.00,VWS V14.01,2013-02-02 22:35:00,
2013-02-02 17:40:00,27.8,22.7,30.13,SSE,148,1.0,5.0,81,0.00,,---,0.00,VWS V14.01,2013-02-02 22:40:00,
2013-02-02 17:45:00,27.6,23.1,30.13,West,269,2.0,5.0,83,0.00,,---,0.00,VWS V14.01,2013-02-02 22:45:00,
2013-02-02 17:50:00,27.5,23.3,30.13,SW,225,0.0,5.0,84,0.00,,---,0.00,VWS V14.01,2013-02-02 22:50:00,
2013-02-02 17:55:00,27.4,23.5,30.13,SE,145,0.0,5.0,85,0.00,,---,0.00,VWS V14.01,2013-02-02 22:55:00,
2013-02-02 18:00:00,27.3,23.4,30.13,ESE,114,0.0,5.0,85,0.00,,---,0.00,VWS V14.01,2013-02-02 23:00:00,
2013-02-02 18:05:00,27.3,23.7,30.13,SE,138,0.0,1.0,86,0.00,,---,0.00,VWS V14.01,2013-02-02 23:05:00,
2013-02-02 18:10:00,27.3,23.7,30.13,SSE,147,0.0,2.0,86,0.00,,---,0.00,VWS V14.01,2013-02-02 23:10:00,
2013-02-02 18:15:00,27.3,23.7,30.13,SE,139,2.0,2.0,86,0.00,,---,0.00,VWS V14.01,2013-02-02 23:15:00,
2013-02-02 18:20:00,27.4,24.0,30.13,SE,133,0.0,2.0,87,0.00,,---,0.00,VWS V14.01,2013-02-02 23:20:00,
2013-02-02 18:25:00,27.4,24.0,30.13,West,259,0.0,2.0,87,0.00,,---,0.00,VWS V14.01,2013-02-02 23:25:00,
2013-02-02 18:30:00,27.5,24.1,30.13,WSW,258,0.0,2.0,87,0.00,,---,0.00,VWS V14.01,2013-02-02 23:30:00,
2013-02-02 18:35:00,27.5,24.1,30.13,ESE,109,0.0,1.0,87,0.00,,---,0.00,VWS V14.01,2013-02-02 23:35:00,
2013-02-02 18:40:00,27.5,24.4,30.13,SE,124,0.0,1.0,88,0.00,,---,0.00,VWS V14.01,2013-02-02 23:40:00,
2013-02-02 18:45:00,27.5,24.1,30.13,SSE,155,0.0,2.0,87,0.00,,---,0.00,VWS V14.01,2013-02-02 23:45:00,
2013-02-02 18:50:00,27.5,24.4,30.13,SSE,166,0.0,2.0,88,0.00,,---,0.00,VWS V14.01,2013-02-02 23:50:00,
2013-02-02 18:55:00,27.5,24.4,30.13,ESE,118,0.0,2.0,88,0.00,,---,0.00,VWS V14.01,2013-02-02 23:55:00,
2013-02-02 19:00:00,27.6,24.5,30.13,SSE,163,0.0,2.0,88,0.00,,---,0.00,VWS V14.01,2013-02-03 00:00:00,
2013-02-02 19:05:00,27.6,24.5,30.13,ESE,117,0.0,1.0,88,0.00,,---,0.00,VWS V14.01,2013-02-03 00:05:00,
2013-02-02 19:10:00,27.6,24.5,30.13,SSE,150,0.0,1.0,88,0.00,,---,0.00,VWS V14.01,2013-02-03 00:10:00,
2013-02-02 19:15:00,27.6,24.5,30.12,SE,132,0.0,1.0,88,0.00,,---,0.00,VWS V14.01,2013-02-03 00:15:00,
2013-02-02 19:20:00,27.7,24.6,30.13,ESE,121,0.0,3.0,88,0.00,,---,0.00,VWS V14.01,2013-02-03 00:20:00,
2013-02-02 19:24:00,27.8,24.7,30.13,West,270,0.0,3.0,88,0.00,,---,0.00,VWS V14.01,2013-02-03 00:24:00,
2013-02-02 19:30:00,27.8,24.7,30.13,WSW,249,2.0,4.0,88,0.00,,---,0.00,VWS V14.01,2013-02-03 00:30:00,
2013-02-02 19:34:00,28.0,24.9,30.13,WSW,252,0.0,1.0,88,0.00,,---,0.00,VWS V14.01,2013-02-03 00:34:00,
2013-02-02 19:39:00,28.1,25.0,30.13,SSW,212,1.0,3.0,88,0.00,,---,0.00,VWS V14.01,2013-02-03 00:39:00,
2013-02-02 19:44:00,28.1,25.0,30.12,SW,231,0.0,3.0,88,0.00,,---,0.00,VWS V14.01,2013-02-03 00:44:00,
2013-02-02 19:49:00,28.1,25.0,30.12,SW,215,1.0,4.0,88,0.00,,---,0.00,VWS V14.01,2013-02-03 00:49:00,
2013-02-02 19:54:00,28.1,25.0,30.12,East,81,0.0,4.0,88,0.00,,---,0.00,VWS V14.01,2013-02-03 00:54:00,
2013-02-02 19:59:00,28.1,25.0,30.12,SE,133,2.0,4.0,88,0.00,,---,0.00,VWS V14.01,2013-02-03 00:59:00,
2013-02-02 20:04:00,28.1,25.0,30.11,SE,136,2.0,2.0,88,0.00,,---,0.00,VWS V14.01,2013-02-03 01:04:00,
2013-02-02 20:09:00,28.1,25.0,30.11,SSE,156,0.0,2.0,88,0.00,,---,0.00,VWS V14.01,2013-02-03 01:09:00,
2013-02-02 20:14:00,28.1,25.0,30.11,SE,145,0.0,2.0,88,0.00,,---,0.00,VWS V14.01,2013-02-03 01:14:00,
2013-02-02 20:19:00,28.1,25.0,30.11,West,278,1.0,3.0,88,0.00,,---,0.00,VWS V14.01,2013-02-03 01:19:00,
2013-02-02 20:24:00,28.2,25.1,30.11,ESE,111,1.0,4.0,88,0.00,,---,0.00,VWS V14.01,2013-02-03 01:24:00,
2013-02-02 20:29:00,28.3,25.2,30.11,SE,141,0.0,5.0,88,0.00,,---,0.00,VWS V14.01,2013-02-03 01:29:00,
2013-02-02 20:34:00,28.3,25.2,30.10,South,191,0.0,1.0,88,0.00,,---,0.00,VWS V14.01,2013-02-03 01:34:00,
2013-02-02 20:39:00,28.4,25.6,30.10,SSE,149,1.0,4.0,89,0.00,,---,0.00,VWS V14.01,2013-02-03 01:39:00,
2013-02-02 20:44:00,28.5,25.7,30.09,SW,219,0.0,4.0,89,0.00,,---,0.00,VWS V14.01,2013-02-03 01:44:00,
2013-02-02 20:49:00,28.5,25.7,30.09,ESE,109,0.0,4.0,89,0.00,,---,0.00,VWS V14.01,2013-02-03 01:49:00,
2013-02-02 20:54:00,28.6,25.8,30.09,SE,146,0.0,4.0,89,0.00,,---,0.00,VWS V14.01,2013-02-03 01:54:00,
2013-02-02 20:59:00,28.6,25.8,30.08,ESE,109,3.0,4.0,89,0.00,,---,0.00,VWS V14.01,2013-02-03 01:59:00,
2013-02-02 21:04:00,28.6,25.8,30.08,SSW,195,0.0,2.0,89,0.00,,---,0.00,VWS V14.01,2013-02-03 02:04:00,
2013-02-02 21:09:00,28.6,26.0,30.08,SSW,196,0.0,2.0,90,0.00,,---,0.00,VWS V14.01,2013-02-03 02:09:00,
2013-02-02 21:14:00,28.6,26.0,30.08,West,271,0.0,2.0,90,0.00,,---,0.00,VWS V14.01,2013-02-03 02:14:00,
2013-02-02 21:19:00,28.8,26.2,30.08,SE,144,0.0,2.0,90,0.00,,---,0.00,VWS V14.01,2013-02-03 02:19:00,
2013-02-02 21:24:00,28.8,26.2,30.08,SW,222,0.0,2.0,90,0.00,,---,0.00,VWS V14.01,2013-02-03 02:24:00,
2013-02-02 21:29:00,28.8,26.2,30.08,SSW,210,0.0,2.0,90,0.00,,---,0.00,VWS V14.01,2013-02-03 02:29:00,
2013-02-02 21:34:00,28.9,26.3,30.07,WSW,250,1.0,2.0,90,0.00,,---,0.00,VWS V14.01,2013-02-03 02:34:00,
2013-02-02 21:39:00,28.9,26.3,30.08,ESE,120,0.0,2.0,90,0.00,,---,0.00,VWS V14.01,2013-02-03 02:39:00,
2013-02-02 21:44:00,28.9,26.3,30.07,SE,128,0.0,2.0,90,0.00,,---,0.00,VWS V14.01,2013-02-03 02:44:00,
2013-02-02 21:49:00,29.0,26.4,30.08,SE,131,0.0,2.0,90,0.00,,---,0.00,VWS V14.01,2013-02-03 02:49:00,
2013-02-02 21:54:00,29.0,26.4,30.07,WNW,293,0.0,2.0,90,0.00,,---,0.00,VWS V14.01,2013-02-03 02:54:00,
2013-02-02 21:59:00,29.1,26.5,30.07,WSW,248,1.0,3.0,90,0.00,,---,0.00,VWS V14.01,2013-02-03 02:59:00,
2013-02-02 22:04:00,29.2,26.4,30.07,WNW,287,0.0,1.0,89,0.00,,---,0.00,VWS V14.01,2013-02-03 03:04:00,
2013-02-02 22:09:00,29.2,26.4,30.07,WSW,238,0.0,2.0,89,0.00,,---,0.00,VWS V14.01,2013-02-03 03:09:00,
2013-02-02 22:14:00,29.2,26.4,30.07,SE,146,0.0,2.0,89,0.00,,---,0.00,VWS V14.01,2013-02-03 03:14:00,
2013-02-02 22:19:00,29.2,26.4,30.07,SSE,147,0.0,2.0,89,0.00,,---,0.00,VWS V14.01,2013-02-03 03:19:00,
2013-02-02 22:24:00,29.1,26.3,30.07,SSE,147,0.0,2.0,89,0.00,,---,0.00,VWS V14.01,2013-02-03 03:24:00,
2013-02-02 22:29:00,29.0,26.2,30.07,SE,146,0.0,2.0,89,0.00,,---,0.00,VWS V14.01,2013-02-03 03:29:00,
2013-02-02 22:34:00,28.9,26.1,30.07,SE,146,0.0,0.0,89,0.00,,---,0.00,VWS V14.01,2013-02-03 03:34:00,
2013-02-02 22:39:00,28.8,26.0,30.07,SE,146,0.0,0.0,89,0.00,,---,0.00,VWS V14.01,2013-02-03 03:39:00,
2013-02-02 22:44:00,28.6,25.8,30.07,SSE,153,0.0,1.0,89,0.00,,---,0.00,VWS V14.01,2013-02-03 03:44:00,
2013-02-02 22:49:00,28.6,26.0,30.07,SSE,153,0.0,1.0,90,0.00,,---,0.00,VWS V14.01,2013-02-03 03:49:00,
2013-02-02 22:54:00,28.6,26.0,30.06,SSE,153,0.0,1.0,90,0.00,,---,0.00,VWS V14.01,2013-02-03 03:54:00,
2013-02-02 22:59:00,28.5,26.0,30.06,SSE,153,0.0,1.0,90,0.00,,---,0.00,VWS V14.01,2013-02-03 03:59:00,
2013-02-02 23:04:00,28.5,26.0,30.06,SE,145,0.0,1.0,90,0.00,,---,0.00,VWS V14.01,2013-02-03 04:04:00,
2013-02-02 23:09:00,28.6,26.0,30.06,SE,145,0.0,1.0,90,0.00,,---,0.00,VWS V14.01,2013-02-03 04:09:00,
2013-02-02 23:14:00,28.6,26.0,30.06,SE,145,0.0,1.0,90,0.00,,---,0.00,VWS V14.01,2013-02-03 04:14:00,
2013-02-02 23:19:00,28.7,26.4,30.06,SE,136,0.0,3.0,91,0.00,,---,0.00,VWS V14.01,2013-02-03 04:19:00,
2013-02-02 23:24:00,28.8,26.2,30.06,SE,139,0.0,3.0,90,0.00,,---,0.00,VWS V14.01,2013-02-03 04:24:00,
2013-02-02 23:29:00,29.0,26.4,30.06,SE,145,0.0,3.0,90,0.00,,---,0.00,VWS V14.01,2013-02-03 04:29:00,
2013-02-02 23:34:00,29.0,26.4,30.06,SW,227,0.0,1.0,90,0.00,,---,0.00,VWS V14.01,2013-02-03 04:34:00,
2013-02-02 23:39:00,29.1,26.5,30.06,West,268,0.0,2.0,90,0.00,,---,0.00,VWS V14.01,2013-02-03 04:39:00,
2013-02-02 23:44:00,29.0,26.2,30.06,West,267,0.0,2.0,89,0.00,,---,0.00,VWS V14.01,2013-02-03 04:44:00,
2013-02-02 23:49:00,29.0,26.2,30.06,West,267,0.0,2.0,89,0.00,,---,0.00,VWS V14.01,2013-02-03 04:49:00,
2013-02-02 23:54:00,28.8,26.0,30.05,West,267,0.0,2.0,89,0.00,,---,0.00,VWS V14.01,2013-02-03 04:54:00,
2013-02-02 23:59:00,28.7,25.9,30.05,West,268,0.0,2.0,89,0.00,,---,0.00,VWS V14.01,2013-02-03 04:59:00,